Regional Weather Roundup
Issued by NWS Charleston, WV

Home | Current Version | Previous Version | Graphics & Text | Print | Product List | Glossary On
Versions: 1 2 3 4 5 6 7 8 9 10 11 12 13 14 15 16 17 18 19 20 21 22 23 24 25 26 27 28 29 30 31 32 33 34 35 36 37 38 39 40 41 42 43 44 45 46 47 48 49 50
000
ASUS41 KRLX 300010
RWRRLX
West Virginia Regional Weather Roundup
National Weather Service Charleston WV
800 PM EDT WED JUL 29 2015

Note: "fair" indicates few or no clouds below 12,000 feet with no
significant weather and/or obstructions to visibility.

WVZ003-300100-
Northern Panhandle of West Virginia

CITY           SKY/WX    TMP DP  RH WIND       PRES   REMARKS
WHEELING       CLEAR     84  70  62 W3        29.95R
$$

WVZ009-300100-
Northwest West Virginia

CITY           SKY/WX    TMP DP  RH WIND       PRES   REMARKS
PARKERSBURG    CLEAR     84  73  69 CALM      29.96S
$$

WVZ006-300100-
Western West Virginia

CITY           SKY/WX    TMP DP  RH WIND       PRES   REMARKS
HUNTINGTON     CLEAR     83  74  74 S3        29.93F
$$

WVZ015-300100-
West Central West Virginia

CITY           SKY/WX    TMP DP  RH WIND       PRES   REMARKS
CHARLESTON     HVY RAIN  78  72  81 VRB3      29.96R VSB 1
$$

WVZ022-031-300100-
North Central West Virginia

CITY           SKY/WX    TMP DP  RH WIND       PRES   REMARKS
CLARKSBURG     PTCLDY    78  74  87 CALM      29.96R
MORGANTOWN     PTCLDY    89  67  47 CALM      29.96S
$$

WVZ025-035-042-045-300100-
Southern West Virginia

CITY           SKY/WX    TMP DP  RH WIND       PRES   REMARKS
BECKLEY        PTCLDY    79  69  71 CALM      30.07R
LOGAN            N/A     84  73  70 CALM      29.97S
BLUEFIELD      CLOUDY    77  68  73 CALM      30.10R
LEWISBURG      PTCLDY    79  68  70 CALM      30.06S
$$

WVZ047-300100-
Northern Mountains of West Virginia

CITY           SKY/WX    TMP DP  RH WIND       PRES   REMARKS
ELKINS         MOCLDY    82  70  66 W5        30.02R
$$

WVZ052-300100-
Eastern Panhandle of West Virginia

CITY           SKY/WX    TMP DP  RH WIND       PRES   REMARKS
MARTINSBURG    CLEAR     82  74  76 SE5       29.94R
PETERSBURG     CLOUDY   N/A N/A N/A CALM      29.97R
$$


USA.gov is the U.S. government's official web portal to all federal, state and local government web resources and services.